Regional Weather Roundup
Issued by NWS Lake Charles, LA

Home | Current Version | Previous Version | Text Only | Print | Product List | Glossary On
Versions: 1 2 3 4 5 6 7 8 9 10 11 12 13 14 15 16 17 18 19 20 21 22 23 24 25 26 27 28 29 30 31 32 33 34 35 36 37 38 39 40 41 42 43 44 45 46 47 48 49 50
000
ASUS44 KLCH 070110
RWRLCH
RWRLCH
REGIONAL WEATHER ROUNDUP
NATIONAL WEATHER SERVICE LAKE CHARLES LA
800 PM CDT MON JUL 06 2015

Note: "fair" indicates few or no clouds below 12,000 feet with no
significant weather and/or obstructions to visibility.


ACROSS SOUTHEAST TEXAS

CITY           SKY/WX    TMP DP  RH WIND       PRES   REMARKS
BEAUMONT       PTCLDY    84  75  74 S9        29.99F
BEAUMONT CITY    N/A     83  76  79 S6        29.99F
ORANGE         CLEAR     84  71  63 S8        30.01F
JASPER         CLEAR     87  76  71 SE6       30.01S
$$

ACROSS CENTRAL LOUISIANA

CITY           SKY/WX    TMP DP  RH WIND       PRES   REMARKS
LEESVILLE      CLEAR     85  72  65 S12       29.98F
FULLERTON        N/A     87  73  62 VRB5      29.97F
ALEXANDRIA INT PTCLDY    84  73  69 S6        29.97F
ESLER FIELD    PTCLDY    86  74  67 S5        30.00F
DERIDDER         N/A     85  75  71 S8        30.01F
OAKDALE        PTCLDY    83  75  78 S3        30.01F
OPELOUSAS        N/A     83  75  78 S8        30.02F
$$

ACROSS SOUTHWEST AND SOUTH CENTRAL LOUISIANA

CITY           SKY/WX    TMP DP  RH WIND       PRES   REMARKS
SULPHUR        PTCLDY    85  75  71 S12       30.01F
LAKE CHARLES   PTCLDY    85  75  72 S9        30.01F
CHENNAULT INT  NOT AVBL
CAMERON PHI    MOCLDY    86  77  74 S15       30.04F
DEQUINCY       MOCLDY    84  77  79 S8        30.00F
JENNINGS         N/A     84  75  75 S7        30.01F
LAFAYETTE      CLEAR     85  74  69 S7        30.03F
NEW IBERIA     NOT AVBL
ABBEVILLE        N/A     82  76  82 S6        30.03F
PATTERSON      CLEAR     82  75  78 S5        30.06F
SALT POINT       N/A     85  78  80 VRB3      30.03F
$$

SELECTED SITES ACROSS THE REGION

CITY           SKY/WX    TMP DP  RH WIND       PRES   REMARKS
HOUSTON BUSH   MOCLDY    86  74  67 S15G22    29.97F
HOUSTON HOBBY  MOCLDY    84  75  74 S12G18    29.97F
GALVESTON      MOCLDY    85  78  80 S14       30.00F
COLLEGE STAT   CLEAR     86  73  65 S18       29.93F
CONROE         MOCLDY    86  71  60 S13       29.96F
HUNTSVILLE     CLEAR     87  71  58 S9        29.95F
LUFKIN         CLEAR     86  70  58 S8        29.96F
SHREVEPORT     MOCLDY    87  73  62 S10       29.93F
MONROE         PTCLDY    84  76  76 S7        29.99F
NATCHEZ MS     NOT AVBL
BATON ROUGE    CLEAR     86  73  65 S8        30.04F
N.O. INTL ARPT PTCLDY    85  72  65 S9        30.05F
SLIDELL        CLEAR     84  78  82 SE5       30.06S
$$

MARINE REPORTS

STATION/POSITION TIME  TEMP    WIND        PRES    VSBY  WAVE
                       AIR SEA DIR/SP/G                  HT/PER
                 (UTC) (F)     (DEG/KT/KT) (MB)    (MI)  (FT/S)
BUOY 30 S HIGH I 0050   85 85  160/ 16/ 17 1014.9F         3/ 6
SEA RIM ST PARK  0000   85     170/ 14/ 16 1017.0F
PORT ARTHUR      0000      85  170/  7/ 11 1016.5F
SABINE PASS N    0000   86 86  180/ 12/ 17 1016.7F
TEXAS POINT      NOT AVBL
CALCASIEU PASS   0000   86 86  200/ 16/ 17   N/A
LK CHARLES BEACH 0000   87 85                N/A
MARSH ISLAND     0000   88     170/ 10/ 13   N/A           0
FRESH WATER LOCK 0000   86 87  150/  7/  9 1017.8F
AMERADA PASS     0000   86 86  150/  4/  7 1018.3F
$$



USA.gov is the U.S. government's official web portal to all federal, state and local government web resources and services.